Location: Vienna
(48.2082°N, 16.3738°E)
Time: 09:32:40
(UTC+02:00)

ISS - Pass Details

Date: 20 July 2018
Orbit: 402 x 408 km, 51.6° (Epoch: 23 July)

Event Time Altitude Azimuth Distance (km) Brightness Sun altitude
Rises 22:09:19 0° 224° (SW) 2,310 0.0 -11.3°
Reaches altitude 10° 22:11:28 10° 216° (SW) 1,455 -1.2 -11.5°
Maximum altitude 22:14:31 38° 147° (SSE) 638 -3.4 -11.8°
Drops below altitude 10° 22:17:36 10° 77° (ENE) 1,466 -1.3 -12.2°
Sets 22:19:46 0° 69° (ENE) 2,331 -0.2 -12.4°
